Kenansville, NC

1:59 AM EDT on April 29, 2017 (GMT -0400)
Duplin County

Weather History for KDPL - March, 2014

Change the Weather History Date:

Sunday, March 2, 2014

  Actual Average (KOAJ) Record (KOAJ)
Temperature  
Mean Temperature 52 °F -  
Max Temperature 71 °F 58 °F 82 °F (1997)
Min Temperature 32 °F 36 °F 28 °F (1999)
Degree Days  
Heating Degree Days 14    
Growing Degree Days 2 (Base 50)    
Moisture  
Dew Point 39 °F    
Average Humidity 64    
Maximum Humidity 100    
Minimum Humidity 31    
Precipitation  
Precipitation 0.00 in - - ()
Sea Level Pressure  
Sea Level Pressure 30.13 in    
Wind  
Wind Speed 1 mph (SW)    
Max Wind Speed 10 mph    
Max Gust Speed 16 mph    
Visibility 8 miles    
Events      
Averages and records for this station are not official NWS values.
T = Trace of Precipitation, MM = Missing Value Source: NWS Daily Summary

Daily Weather History Graph

Daily Weather History Graph

Search for Another Location

Airport or City:

Trip Planner

Search our weather history database for the weather conditions in past years. The results will help you decide how hot, cold, wet, or windy it might be!

Date:

Astronomy

Mar. 02, 2014 Rise Set
Actual Time 6:40 AM EST 6:08 PM EST
Civil Twilight 6:14 AM EST 6:33 PM EST
Nautical Twilight 5:45 AM EST 7:03 PM EST
Astronomical Twilight 5:16 AM EST 7:32 PM EST
Moon 7:14 AM EST (3/2) 7:56 PM EST (3/2)
Length of Visible Light 12h 19m
Length of Day
11h 28m
Waxing Crescent, 3% of the Moon is Illuminated
Mar 2
Waxing Crescent
Mar 8
First Quarter
Mar 16
Full
Mar 23
Last Quarter
Mar 30
New

Hourly Weather History & Observations

Time (EST) Temp. Dew Point Humidity Pressure Visibility Wind Dir Wind Speed Gust Speed Precip Events Conditions
12:15 AM 34.0 °F 33.4 °F 98% 30.25 in 4.0 mi Calm Calm - N/A   Clear
12:35 AM 33.8 °F 33.4 °F 99% 30.24 in 3.0 mi Calm Calm - N/A   Clear
12:55 AM 34.7 °F 34.2 °F 98% 30.24 in 7.0 mi Calm Calm - N/A   Clear
1:15 AM 34.5 °F 33.8 °F 97% 30.24 in 7.0 mi Calm Calm - N/A   Scattered Clouds
1:35 AM 35.8 °F 35.4 °F 99% 30.24 in 7.0 mi Calm Calm - N/A   Mostly Cloudy
1:55 AM 37.4 °F 36.7 °F 97% 30.25 in 7.0 mi Calm Calm - N/A   Overcast
2:15 AM 38.7 °F 37.4 °F 95% 30.24 in 7.0 mi Calm Calm - N/A   Overcast
2:35 AM 38.7 °F 37.4 °F 95% 30.24 in 7.0 mi Calm Calm - N/A   Overcast
2:55 AM 39.4 °F 38.1 °F 95% 30.24 in 7.0 mi Calm Calm - N/A   Overcast
3:15 AM 40.1 °F 38.5 °F 94% 30.23 in 7.0 mi Calm Calm - N/A   Mostly Cloudy
3:35 AM 37.8 °F 36.9 °F 97% 30.22 in 5.0 mi Calm Calm - N/A   Scattered Clouds
3:55 AM 36.9 °F 36.3 °F 98% 30.22 in 5.0 mi Calm Calm - N/A   Clear
4:15 AM 35.1 °F 34.7 °F 99% 30.22 in 3.0 mi Calm Calm - N/A   Clear
4:35 AM 34.9 °F 34.5 °F 99% 30.22 in 3.0 mi Calm Calm - N/A   Clear
4:55 AM 34.2 °F 34.0 °F 99% 30.22 in 4.0 mi Calm Calm - N/A   Clear
5:15 AM 33.8 °F 33.4 °F 99% 30.22 in 3.0 mi Calm Calm - N/A   Clear
5:35 AM 33.3 °F 33.1 °F 99% 30.22 in 3.0 mi Calm Calm - N/A   Clear
5:50 AM 32.9 °F 32.9 °F 100% 30.21 in 4.0 mi Calm Calm - N/A   Clear
6:15 AM 32.4 °F 32.4 °F 100% 30.20 in 3.0 mi Calm Calm - N/A   Clear
6:35 AM 32.4 °F 32.4 °F 100% 30.21 in 4.0 mi Calm Calm - N/A   Clear
6:55 AM 32.0 °F 32.0 °F 100% 30.22 in 3.0 mi Calm Calm - N/A   Clear
7:15 AM 32.9 °F 32.9 °F 100% 30.23 in 2.5 mi Calm Calm - N/A   Clear
7:35 AM 35.8 °F 35.8 °F 100% 30.24 in 5.0 mi Calm Calm - N/A   Clear
7:55 AM 39.6 °F 38.7 °F 97% 30.24 in 7.0 mi Calm Calm - N/A   Clear
8:15 AM 44.2 °F 40.6 °F 87% 30.24 in 7.0 mi Calm Calm - N/A   Clear
8:35 AM 48.2 °F 40.6 °F 75% 30.23 in 10.0 mi Calm Calm - N/A   Clear
8:55 AM 50.9 °F 40.1 °F 67% 30.23 in 10.0 mi Calm Calm - N/A   Clear
9:15 AM 54.3 °F 39.9 °F 58% 30.23 in 10.0 mi Calm Calm - N/A   Clear
9:35 AM 56.7 °F 37.9 °F 50% 30.23 in 10.0 mi WSW 5.8 mph - N/A   Clear
9:55 AM 59.0 °F 39.0 °F 48% 30.23 in 10.0 mi West 3.5 mph - N/A   Clear
10:15 AM 59.9 °F 38.5 °F 45% 30.23 in 10.0 mi WNW 6.9 mph - N/A   Clear
10:30 AM 60.8 °F 36.3 °F 40% 30.22 in 10.0 mi West 6.9 mph - N/A   Clear
10:55 AM 62.8 °F 36.3 °F 37% 30.20 in 10.0 mi SW 6.9 mph - N/A   Clear
11:15 AM 63.0 °F 36.1 °F 37% 30.19 in 10.0 mi West 6.9 mph - N/A   Clear
11:35 AM 63.7 °F 36.1 °F 36% 30.18 in 10.0 mi Calm Calm - N/A   Clear
11:55 AM 64.8 °F 36.0 °F 34% 30.17 in 10.0 mi WSW 6.9 mph - N/A   Clear
12:15 PM 65.5 °F 36.5 °F 34% 30.15 in 10.0 mi SW 5.8 mph - N/A   Clear
12:35 PM 65.8 °F 36.5 °F 34% 30.13 in 10.0 mi South 3.5 mph - N/A   Clear
12:55 PM 66.7 °F 37.4 °F 34% 30.13 in 10.0 mi SW 5.8 mph - N/A   Clear
1:15 PM 66.9 °F 37.8 °F 34% 30.11 in 10.0 mi WSW 8.1 mph - N/A   Unknown
1:35 PM 67.1 °F 37.9 °F 34% 30.09 in 10.0 mi SW 6.9 mph - N/A   Clear
1:55 PM 68.4 °F 38.7 °F 34% 30.07 in 7.0 mi SSW 3.5 mph - N/A   Clear
2:15 PM 69.4 °F 38.8 °F 33% 30.06 in 10.0 mi SSE 5.8 mph 9.2 mph N/A   Clear
2:30 PM 69.8 °F 38.8 °F 32% 30.06 in 10.0 mi SSW 5.8 mph - N/A   Clear
2:53 PM 69.8 °F 39.2 °F 33% 30.04 in 10.0 mi SW 10.4 mph 16.1 mph N/A   Clear
3:15 PM 69.8 °F 39.2 °F 33% 30.04 in 10.0 mi South 5.8 mph - N/A   Clear
3:33 PM 69.8 °F 39.2 °F 33% 30.03 in 10.0 mi SSE 3.5 mph - N/A   Clear
3:53 PM 71.6 °F 39.2 °F 31% 30.03 in 10.0 mi SW 8.1 mph - N/A   Clear
4:13 PM 71.6 °F 39.2 °F 31% 30.03 in 10.0 mi SSW 4.6 mph - N/A   Clear
4:15 PM 70.5 °F 39.9 °F 33% 30.03 in 10.0 mi SSW 4.6 mph - N/A   Clear
4:35 PM 70.3 °F 39.7 °F 33% 30.02 in 10.0 mi SW 6.9 mph - N/A   Clear
4:55 PM 69.6 °F 39.4 °F 33% 30.02 in 10.0 mi SW 4.6 mph - N/A   Clear
5:15 PM 68.9 °F 40.1 °F 35% 30.01 in 10.0 mi South 3.5 mph - N/A   Clear
5:35 PM 67.5 °F 40.8 °F 38% 30.01 in 10.0 mi SSW 3.5 mph - N/A   Clear
5:55 PM 66.0 °F 41.5 °F 41% 30.02 in 10.0 mi SW 3.5 mph - N/A   Clear
6:15 PM 63.5 °F 42.3 °F 46% 30.02 in 10.0 mi Calm Calm - N/A   Clear
6:35 PM 59.2 °F 44.8 °F 59% 30.02 in 10.0 mi Calm Calm - N/A   Clear
6:55 PM 56.8 °F 44.8 °F 64% 30.02 in 10.0 mi Calm Calm - N/A   Clear
7:15 PM 55.2 °F 43.9 °F 66% 30.01 in 10.0 mi Calm Calm - N/A   Clear
7:35 PM 54.9 °F 44.1 °F 67% 30.02 in 10.0 mi Calm Calm - N/A   Clear
7:55 PM 57.2 °F 43.5 °F 60% 30.02 in 10.0 mi Calm Calm - N/A   Clear
8:15 PM 59.2 °F 43.7 °F 57% 30.01 in 10.0 mi South 3.5 mph - N/A   Clear
8:35 PM 59.4 °F 43.3 °F 55% 30.01 in 10.0 mi Calm Calm - N/A   Clear
8:55 PM 58.5 °F 43.0 °F 56% 30.01 in 10.0 mi Calm Calm - N/A   Clear
9:15 PM 58.5 °F 43.0 °F 56% 30.01 in 10.0 mi SSW 3.5 mph - N/A   Clear
9:35 PM 57.9 °F 43.0 °F 58% 30.00 in 10.0 mi Calm Calm - N/A   Clear
9:55 PM 57.2 °F 42.8 °F 59% 29.98 in 10.0 mi South 3.5 mph - N/A   Clear
10:15 PM 56.5 °F 42.3 °F 59% 29.99 in 10.0 mi SSW 5.8 mph - N/A   Clear
10:35 PM 55.6 °F 42.3 °F 61% 29.99 in 10.0 mi Calm Calm - N/A   Clear
10:55 PM 55.4 °F 42.1 °F 61% 29.99 in 10.0 mi Calm Calm - N/A   Clear
11:15 PM 54.9 °F 42.3 °F 63% 29.98 in 10.0 mi Calm Calm - N/A   Clear
11:35 PM 53.6 °F 42.3 °F 65% 29.97 in 10.0 mi Calm Calm - N/A   Clear
11:55 PM 54.0 °F 42.3 °F 65% 29.97 in 10.0 mi Calm Calm - N/A   Clear